Hourly Data Report for October 25, 2014

All times are specified in Local Standard Time (LST). Add 1 hour to adjust for Daylight Saving Time where and when it is observed.

Metadata including Station Name, Province, Latitude, Longitude, Elevation, Climate ID, WMO ID, TC ID
GRAND ETANG
NOVA SCOTIA
Latitude: 46°33'00.000" N Longitude: 61°03'00.000" W Elevation: 12.80 m
Climate ID: 8201969 WMO ID: TC ID: WZQ
Hourly Data Report for October 24, 2014
Temp Definition
°C

Dew Point Temp Definition
°C

Rel Hum Definition
%

Wind Dir Definition
10's deg
Wind Spd Definition
km/h

Visibility Definition
km

Stn Press Definition
kPa

Hmdx Definition

Wind Chill Definition

Weather Definition

00:00 12.2 LegendMM 79 4 13 101.06 LegendNANA
01:00 12.1 LegendMM 80 3 19 100.88 LegendNANA
02:00 12.6 LegendMM 78 3 23 100.77 LegendNANA
03:00 12.4 LegendMM 78 4 29 100.68 LegendNANA
04:00 12.7 LegendMM 78 8 36 100.57 LegendNANA
05:00 12.3 LegendMM 82 7 26 100.42 LegendNANA
06:00 12.9 LegendMM 78 9 69 99.98 LegendNANA
07:00 13.2 LegendMM 76 9 73 99.98 LegendNANA
08:00 14.2 LegendMM 74 9 52 100.13 LegendNANA
09:00 13.3 LegendMM 83 7 38 100.03 LegendNANA
10:00 14.0 LegendMM 81 9 37 100.05 LegendNANA
11:00 15.1 LegendMM 80 4 15 100.09 LegendNANA
12:00 15.4 LegendMM 80 13 10 100.02 LegendNANA
13:00 15.8 LegendMM 81 36 6 99.83 LegendNANA
14:00 15.6 LegendMM 83 25 12 99.76 LegendNANA
15:00 16.7 LegendMM 79 33 10 99.74 LegendNANA
16:00 17.2 LegendMM 75 15 5 99.66 LegendNANA
17:00 15.6 LegendMM 80 1 3 99.60 LegendNANA
18:00 15.4 LegendMM 81 12 8 99.55 LegendNANA
19:00 13.8 LegendMM 84 32 2 99.52 LegendNANA
20:00 12.4 LegendMM 85 13 5 99.48 LegendNANA
21:00 13.0 LegendMM 85 13 3 99.43 LegendNANA
22:00 13.7 LegendMM 83 6 12 99.34 LegendNANA
23:00 13.5 LegendMM 83 27 4 99.30 LegendNANA

Notes on Data Quality.

Legend
  • E = Estimated
  • M = Missing
  • NA = Not Available
  • ‡ = Partner data that is not subject to review by the National Climate Archives